sat.trackr.live / text

‹ back to catalog

KUIPER-00089

NORAD 64834 · 2025-151U

PAYLOAD ACTIVE UNKNOWN

§ Identity

Operator
Country
US
Launch date
2025-07-16
Launch site
AFETR
Launch vehicle
Mass (kg)
RCS (m²)

External: N2YO · Heavens-Above · Gunter

§ Orbital elements

Epoch: 2026-09-21T20:22:44.825088Z

Period
97.30 min
Inclination
51.9015°
Eccentricity
0.0000664
Mean motion
14.79929163 rev/d
Perigee alt
629.1 km
Apogee alt
630.0 km
Semi-major
7,007.7 km
B*
2.3816e-4
RAAN
138.1791°
Arg perigee
106.4877°
Mean anomaly
253.6159°
Rev number
6,456

§ Raw data

KUIPER-000891 64834U 25151U   26264.84912992  .00001595  00000+0  23816-3 0  99952 64834  51.9015 138.1791 0000664 106.4877 253.6159 14.79929163 64560

JSON: /api/v1/satellites/64834 · /tle

For live sub-satellite position, see the globe view (requires WebGL).

§ Visibility from observer

Set your observer location to see the next 7 days of passes ≥ 10°. The values pass through the URL so the page stays shareable.

No JS? Fill the form by hand. The geolocation button needs JavaScript.